STARLINK-34017

Last updated on Thu Jul 03 2025 00:02:06 GMT+0000 (Coordinated Universal Time)

1 64339U 25124Y 25183.58335648 .00050913 00000+0 86942-3 0 9999 2 64339 43.0003 98.8407 0001683 262.7094 185.0468 15.50533500 4745
UTC large
Height (km)
Speed (km/s)
/
Latitude / Longitude
Inclination (degrees)
Orbital Period (minutes)
Azimuth
Elevation
Range (km)
Doppler Factor

Next 0 passes for location: London (51.5072 / 0.1276)

Sorry there are no passes over London.